Terminal Aerodrome Forecast
Issued by NWS

Home | Current Version | Previous Version | Text Only | Print | Product List | Glossary On
Versions: 1 2 3 4 5 6 7 8 9 10 11 12 13 14 15 16 17 18
000
FTUS43 KPAH 181726
TAFCGI
TAF
KCGI 181726Z 1818/1918 22018G30KT P6SM VCSH SCT018 BKN025
     FM181830 VRB20G40KT 1SM TSRA BR BKN010CB OVC025
     FM181900 32022G35KT P6SM SCT015 BKN030
     FM190000 32018G28KT P6SM SCT060
     FM190500 31011KT P6SM SKC
     FM191300 33008KT P6SM SKC=

USA.gov is the U.S. government's official web portal to all federal, state and local government web resources and services.